[[{"header":{"parameterUnit":"m.s-1","parameterCategory":1,"la1":30.2991,"la2":30.254,"lo1":-89.0895,"lo2":-89.0444,"dy":0.0017,"dx":0.0017,"nx":28,"ny":28,"refTime":"2024-09-30T09:00:00:Z","depth":0,"parameterNumber":2,"parameterNumberName":"U-component_of_WINDS"},"data":[0,0,0,0,0,0,0,0,0,0,0,0,0,0,0,0,0,0,0,0,0,0,0,0,0,0,0,0,0,0,0,0,0,0,0,0,0,0,0,0,0,0,0,0,0,0,0,0,0,0,0,0,0,0,0,0,0,0,1.2695,1.2696,0,1.2811,1.2812,1.2813,1.2818,1.2817,1.2815,1.2814,1.2932,1.2937,1.2941,0,0,0,0,0,0,0,0,0,0,0,0,0,1.2478,1.2482,1.2695,1.2696,1.2698,1.281,1.2812,1.2814,1.2818,1.2817,1.2815,1.2814,1.2931,1.2936,1.2941,0,0,0,0,0,0,0,0,0,0,0,0,0,1.2581,1.2483,1.2695,1.2714,1.2717,1.281,1.2812,1.2814,1.2819,1.2817,1.2815,1.2813,1.2929,1.2936,1.2942,1.3024,0,0,1.2962,1.2965,0,0,0,0,0,0,0,0,1.2575,1.2589,1.2709,1.2713,1.2716,1.2798,1.2779,1.2885,1.2819,1.278,1.2814,1.2812,1.2889,1.2899,1.2925,1.303,1.3035,1.2963,1.2967,1.297,1.2972,0,0,0,0,0,0,0,1.2568,1.2584,1.2741,1.2711,1.2715,1.2717,1.2729,1.2799,1.2845,1.2783,1.2784,1.2798,1.2891,1.2919,1.2928,1.3037,1.2963,1.2969,1.2973,1.2975,1.3214,1.3217,0,0,0,0,0,0,1.2557,1.2578,1.2737,1.2744,1.2639,1.2722,1.2736,1.2774,1.2844,1.2853,1.2799,1.2797,1.2909,1.292,1.2932,1.3033,1.297,1.2976,1.298,1.3212,1.3215,1.3217,0,0,0,0,0,0,1.2552,1.2571,1.2732,1.2661,1.2682,1.2728,1.277,1.2777,1.2805,1.2856,1.2864,1.282,1.2907,1.2923,1.3001,1.3037,1.2979,1.2985,1.3209,1.3213,1.3216,1.3234,0,0,0,0,0,0,1.2546,1.2569,1.2601,1.2662,1.2686,1.2799,1.2773,1.2781,1.2817,1.2815,1.2877,1.2886,1.2907,1.2991,1.3008,1.3045,1.299,1.3206,1.3211,1.3215,1.323,1.3238,1.3244,0,0,0,0,0,1.2538,1.2601,1.2603,1.2622,1.2726,1.2801,1.2815,1.2838,1.282,1.2852,1.2884,1.2884,1.3031,1.2999,1.3018,1.3057,1.3204,1.321,1.3215,1.3227,1.3236,1.3244,0,0,0,0,0,0,1.2543,1.261,1.2612,1.2696,1.2743,1.2802,1.2843,1.2847,1.29,1.2897,1.2923,1.2937,1.3015,1.3044,1.3009,1.3141,1.3115,1.3124,1.3118,1.3127,1.3134,1.3125,1.2996,0,0,0,0,0,1.2554,1.261,1.2665,1.2735,1.2758,1.2797,1.283,1.2844,1.2894,1.2914,1.2952,1.3,1.3057,1.3094,1.3149,1.3235,1.3248,1.3272,1.3278,1.3284,1.3291,1.3338,1.3349,1.3235,1.3235,1.3235,0,0,1.2577,1.2621,1.2654,1.2737,1.2775,1.2831,1.2813,1.2874,1.2917,1.2923,1.2999,1.3029,1.3085,1.3167,1.3205,1.3194,1.3326,1.329,1.3294,1.3299,1.3345,1.3355,1.3365,1.3238,1.3238,1.3237,0,0,1.2648,1.2687,1.2749,1.2787,1.2845,1.2871,1.2885,1.2944,1.2964,1.3041,1.3047,1.3098,1.3196,1.3235,1.3268,1.3355,1.3356,1.3372,1.3407,1.3452,1.3461,1.3469,1.35,1.351,1.3379,1.3379,1.3379,0,1.2669,1.2756,1.278,1.2841,1.2877,1.2886,1.2949,1.2985,1.3058,1.3082,1.3069,1.3192,1.323,1.3321,1.3342,1.3369,1.3386,1.3364,1.3458,1.3467,1.3474,1.3503,1.3515,1.3381,1.3381,1.3381,1.338,0,1.2779,1.2838,1.2881,1.2951,1.2993,1.3054,1.3088,1.3127,1.3138,1.3164,1.3243,1.3289,1.3353,1.3377,1.3388,1.347,1.3461,1.3453,1.3427,1.3486,1.3514,1.3525,1.3383,1.3383,1.3382,1.3382,0,0,1.2854,1.2938,1.2953,1.2985,1.305,1.3097,1.3159,1.3222,1.3255,1.3305,1.3357,1.344,1.3433,1.347,1.3486,1.3526,1.3591,1.3513,1.3515,1.3525,1.3684,1.3689,1.3701,1.3593,1.3595,1.3597,1.3679,0,1.2932,1.3042,1.3066,1.3162,1.3217,1.3227,1.3281,1.3326,1.3354,1.3404,1.3434,1.3492,1.3479,1.3501,1.3542,1.3575,1.3623,1.3569,1.3641,1.3644,1.3626,1.3716,1.3721,1.3796,1.369,1.3692,1.3693,0,1.3036,1.3089,1.319,1.3247,1.3271,1.332,1.338,1.3428,1.348,1.3497,1.3539,1.3551,1.3616,1.3589,1.3678,1.3641,1.3672,1.3693,1.3696,1.3703,1.3671,1.3724,1.3821,1.3831,1.3711,1.3709,1.3708,0,1.308,1.3177,1.3249,1.3276,1.3346,1.3379,1.341,1.346,1.3497,1.3549,1.3573,1.3633,1.3665,1.3711,1.3739,1.3716,1.3826,1.3801,1.3841,1.3841,1.3863,1.3861,1.3965,1.3885,1.3885,1.3885,1.3885,0,1.3163,1.3224,1.327,1.3314,1.3383,1.3411,1.3478,1.3508,1.3553,1.3604,1.3616,1.3663,1.3698,1.375,1.3772,1.3842,1.3857,1.3872,1.3877,1.387,1.3868,1.389,1.3885,1.3888,1.3887,1.3887,1.3886,0,1.3223,1.3256,1.3336,1.3395,1.3412,1.346,1.351,1.3554,1.3582,1.3646,1.3662,1.3706,1.3768,1.38,1.3878,1.3892,1.3971,1.3974,1.3954,1.3955,1.3993,1.3989,1.4114,1.4132,1.4041,1.4042,1.4043,0,1.3273,1.332,1.3385,1.3419,1.345,1.3507,1.3544,1.3574,1.3612,1.3675,1.3711,1.3774,1.3825,1.3924,1.3962,1.4022,1.4025,1.4065,1.4034,1.4025,1.4024,1.402,1.4025,1.407,1.407,1.4071,1.4072,0,1.3357,1.3372,1.3425,1.3485,1.3529,1.3578,1.3626,1.3654,1.3691,1.3734,1.3797,1.3837,1.3916,1.3978,1.4041,1.4072,1.4078,1.4082,1.4094,1.4087,1.4072,1.4079,1.3967,1.4078,1.4077,1.4077,1.4077,1.4076,1.3413,1.3455,1.3507,1.3567,1.3606,1.3651,1.3694,1.3728,1.3781,1.3848,1.3863,1.393,1.3981,1.4065,1.4099,1.4151,1.4143,1.4161,1.4165,1.4169,1.417,1.4065,1.4163,1.4163,1.4163,1.4163,1.4163,0,1.3497,1.3531,1.3586,1.3653,1.3699,1.3702,1.3755,1.3794,1.3853,1.39,1.3951,1.4024,1.4084,1.4128,1.4189,1.4223,1.4227,1.4238,1.4235,1.4242,1.4175,1.4157,1.4233,1.4233,1.4233,1.4233,1.4233,1.4233,1.3546,1.3618,1.3639,1.373,1.3764,1.3829,1.3859,1.3901,1.3939,1.402,1.407,1.4098,1.4144,1.4209,1.4264,1.4276,1.4297,1.4307,1.4319,1.4254,1.4247,1.424,1.4223,1.4312,1.4312,1.4382,1.4382,1.4383]},{"header":{"parameterUnit":"m.s-1","parameterCategory":1,"la1":30.2991,"la2":30.254,"lo1":-89.0895,"lo2":-89.0444,"dy":0.0017,"dx":0.0017,"nx":28,"ny":28,"refTime":"2024-09-30T09:00:00:Z","depth":0,"parameterNumber":3,"parameterNumberName":"V-component_of_WINDS"},"data":[0,0,0,0,0,0,0,0,0,0,0,0,0,0,0,0,0,0,0,0,0,0,0,0,0,0,0,0,0,0,0,0,0,0,0,0,0,0,0,0,0,0,0,0,0,0,0,0,0,0,0,0,0,0,0,0,0,0,-0.7667,-0.7667,0,-0.7738,-0.7739,-0.774,-0.78,-0.78,-0.7801,-0.7802,-0.7875,-0.7876,-0.7877,0,0,0,0,0,0,0,0,0,0,0,0,0,-0.7582,-0.7583,-0.7667,-0.7667,-0.7668,-0.7738,-0.7739,-0.774,-0.78,-0.78,-0.7801,-0.7802,-0.7874,-0.7876,-0.7877,0,0,0,0,0,0,0,0,0,0,0,0,0,-0.7633,-0.7584,-0.7666,-0.7706,-0.7711,-0.7738,-0.7739,-0.774,-0.7799,-0.78,-0.7801,-0.7802,-0.7874,-0.7876,-0.7878,-0.7871,0,0,-0.7884,-0.7885,0,0,0,0,0,0,0,0,-0.763,-0.7636,-0.77,-0.7704,-0.7709,-0.7761,-0.7736,-0.7784,-0.7799,-0.7766,-0.7802,-0.7803,-0.7836,-0.7841,-0.7853,-0.7874,-0.7878,-0.7884,-0.7885,-0.7886,-0.7887,0,0,0,0,0,0,0,-0.7626,-0.7633,-0.7695,-0.77,-0.7706,-0.7721,-0.7729,-0.7746,-0.7795,-0.7769,-0.7773,-0.7781,-0.7839,-0.785,-0.7855,-0.7879,-0.7884,-0.7886,-0.7887,-0.7888,-0.79,-0.7899,0,0,0,0,0,0,-0.7616,-0.763,-0.7693,-0.7697,-0.7671,-0.7722,-0.7731,-0.7743,-0.7795,-0.7803,-0.778,-0.7783,-0.7847,-0.7852,-0.7858,-0.7854,-0.7886,-0.7888,-0.7889,-0.7901,-0.79,-0.7899,0,0,0,0,0,0,-0.7614,-0.7621,-0.769,-0.7665,-0.7675,-0.7722,-0.7735,-0.7744,-0.7756,-0.7803,-0.7812,-0.7783,-0.7848,-0.7855,-0.7868,-0.7857,-0.7889,-0.7891,-0.7902,-0.7901,-0.79,-0.7846,0,0,0,0,0,0,-0.7612,-0.762,-0.7618,-0.7664,-0.7676,-0.7698,-0.7735,-0.7745,-0.7759,-0.7764,-0.7808,-0.7817,-0.7849,-0.7864,-0.787,-0.7861,-0.7892,-0.7903,-0.7902,-0.79,-0.7849,-0.7843,-0.7838,0,0,0,0,0,-0.7608,-0.7599,-0.7617,-0.7625,-0.7674,-0.7697,-0.7704,-0.7741,-0.7758,-0.7757,-0.7787,-0.7815,-0.7858,-0.7865,-0.7872,-0.7863,-0.7904,-0.7902,-0.79,-0.7851,-0.7844,-0.7838,0,0,0,0,0,0,-0.755,-0.7606,-0.7627,-0.7632,-0.766,-0.7707,-0.7706,-0.7732,-0.7755,-0.7759,-0.7805,-0.7814,-0.7822,-0.7844,-0.7851,-0.786,-0.7885,-0.7884,-0.7845,-0.7839,-0.7834,-0.7828,-0.7894,0,0,0,0,0,-0.7538,-0.7553,-0.7601,-0.7601,-0.7614,-0.7658,-0.7669,-0.7696,-0.7726,-0.7738,-0.7769,-0.7797,-0.7818,-0.783,-0.785,-0.7853,-0.7864,-0.785,-0.7845,-0.784,-0.7839,-0.7843,-0.7838,-0.7893,-0.7893,-0.7893,0,0,-0.7513,-0.7546,-0.7552,-0.7591,-0.7615,-0.7629,-0.7667,-0.768,-0.7692,-0.774,-0.7754,-0.7778,-0.7813,-0.7821,-0.7826,-0.7839,-0.7826,-0.7838,-0.7833,-0.7835,-0.784,-0.7835,-0.783,-0.7891,-0.7891,-0.7892,0,0,-0.7475,-0.7501,-0.7505,-0.7528,-0.7565,-0.7594,-0.7595,-0.7639,-0.7657,-0.7673,-0.771,-0.7724,-0.7757,-0.778,-0.7797,-0.7769,-0.7796,-0.7775,-0.7746,-0.7749,-0.7745,-0.7742,-0.7732,-0.7728,-0.7773,-0.7773,-0.7773,0,-0.7439,-0.7462,-0.7503,-0.7515,-0.7531,-0.7576,-0.7581,-0.7602,-0.7643,-0.7654,-0.7668,-0.7712,-0.7738,-0.7753,-0.7746,-0.7758,-0.7761,-0.777,-0.7742,-0.7739,-0.7737,-0.7728,-0.7725,-0.777,-0.7771,-0.7771,-0.7771,0,-0.7417,-0.7433,-0.7431,-0.7471,-0.7487,-0.7495,-0.7537,-0.7549,-0.7575,-0.7603,-0.7618,-0.7652,-0.7681,-0.7686,-0.7711,-0.7705,-0.7712,-0.7734,-0.7759,-0.7728,-0.7721,-0.7718,-0.7766,-0.7767,-0.7768,-0.7769,0,0,-0.7343,-0.7406,-0.7405,-0.7424,-0.7468,-0.7481,-0.7492,-0.7521,-0.753,-0.7557,-0.7568,-0.7596,-0.7617,-0.7635,-0.7663,-0.7666,-0.7643,-0.7688,-0.769,-0.7679,-0.7639,-0.7622,-0.7618,-0.7662,-0.7661,-0.7661,-0.7637,0,-0.7312,-0.7334,-0.7371,-0.7381,-0.7396,-0.744,-0.745,-0.7478,-0.7505,-0.7522,-0.7552,-0.7571,-0.7597,-0.7609,-0.7614,-0.7645,-0.7636,-0.7647,-0.7672,-0.7673,-0.7662,-0.7614,-0.7596,-0.7572,-0.7634,-0.7634,-0.7633,0,-0.7279,-0.7304,-0.7315,-0.736,-0.7368,-0.7375,-0.7406,-0.7421,-0.7455,-0.7475,-0.7496,-0.7527,-0.7541,-0.7565,-0.7585,-0.7592,-0.7605,-0.7622,-0.7622,-0.7626,-0.7651,-0.7617,-0.7565,-0.7561,-0.7629,-0.763,-0.763,0,-0.7224,-0.7261,-0.7273,-0.7288,-0.734,-0.7345,-0.7367,-0.7401,-0.7417,-0.7443,-0.7454,-0.7481,-0.7496,-0.7517,-0.7556,-0.7569,-0.7572,-0.7599,-0.7589,-0.7588,-0.7587,-0.7587,-0.7536,-0.7595,-0.7595,-0.7596,-0.7596,0,-0.7186,-0.7191,-0.725,-0.7256,-0.7264,-0.7308,-0.7314,-0.734,-0.7371,-0.7384,-0.7424,-0.7436,-0.7486,-0.7504,-0.7534,-0.7547,-0.7553,-0.7569,-0.7577,-0.7566,-0.7564,-0.7574,-0.7577,-0.7595,-0.7595,-0.7595,-0.7595,0,-0.7126,-0.7165,-0.7181,-0.723,-0.7242,-0.7245,-0.7287,-0.7296,-0.7326,-0.7342,-0.7349,-0.7395,-0.7419,-0.7459,-0.7494,-0.7514,-0.7521,-0.7535,-0.7509,-0.7514,-0.7503,-0.7503,-0.7457,-0.7454,-0.7514,-0.7514,-0.7513,0,-0.7099,-0.7104,-0.7153,-0.7165,-0.7186,-0.7205,-0.7221,-0.7265,-0.728,-0.732,-0.7324,-0.735,-0.7374,-0.7409,-0.7446,-0.7473,-0.7488,-0.747,-0.7492,-0.748,-0.7488,-0.7487,-0.7488,-0.7464,-0.7463,-0.7463,-0.7462,0,-0.7046,-0.7066,-0.7088,-0.7117,-0.7135,-0.716,-0.7186,-0.7194,-0.7244,-0.7259,-0.7284,-0.7302,-0.7338,-0.7364,-0.7397,-0.742,-0.7449,-0.7455,-0.7454,-0.7442,-0.7428,-0.7436,-0.7496,-0.7456,-0.7456,-0.7457,-0.7457,-0.7457,-0.7002,-0.7009,-0.7045,-0.7069,-0.7094,-0.7118,-0.7129,-0.7161,-0.7182,-0.7215,-0.724,-0.7263,-0.7298,-0.7345,-0.7366,-0.7385,-0.7399,-0.7397,-0.7397,-0.7396,-0.7392,-0.7425,-0.7391,-0.7392,-0.7392,-0.7392,-0.7392,0,-0.6952,-0.6978,-0.6999,-0.7036,-0.7054,-0.7081,-0.7113,-0.7126,-0.7146,-0.7176,-0.7199,-0.7228,-0.7253,-0.7293,-0.7322,-0.733,-0.7344,-0.7336,-0.7336,-0.7341,-0.7378,-0.7376,-0.7324,-0.7324,-0.7324,-0.7324,-0.7324,-0.7324,-0.6928,-0.6942,-0.6966,-0.6993,-0.7019,-0.7041,-0.7057,-0.7081,-0.7105,-0.7135,-0.7157,-0.7183,-0.7218,-0.725,-0.7275,-0.7286,-0.7295,-0.7282,-0.7298,-0.7332,-0.7338,-0.7344,-0.7342,-0.7284,-0.7284,-0.7259,-0.7259,-0.7259]}]]